Location: Driftpile
(55.3500°N, 115.7667°W)
Time: 01:13:58
(UTC+00:00)

N. Korean satellite - Pass Details

Date: 01 December 2021
Orbit: 446 x 492 km, 97.3° (Epoch: 17 January)

Event Time Altitude Azimuth Distance (km) Brightness Sun altitude
Rises 13:59:39 0° 7° (N) 2,490 10.1 -14.1°
Reaches altitude 10° 14:01:51 10° 357° (N) 1,604 9.0 -13.8°
Maximum altitude 14:04:54 31° 294° (WNW) 825 7.1 -13.4°
Drops below altitude 10° 14:07:55 10° 231° (SW) 1,579 8.9 -13.0°
Sets 14:10:04 0° 221° (SW) 2,444 9.9 -12.7°
